Change the Weather History Date:

Friday, February 14, 2014

  Actual Average Record
Temperature  
Mean Temperature 38 °F -  
Max Temperature 43 °F 37 °F 50 °F (2015)
Min Temperature 32 °F 19 °F 3 °F (2002)
Degree Days  
Heating Degree Days 28    
Moisture  
Dew Point 35 °F    
Average Humidity 92    
Maximum Humidity 100    
Minimum Humidity 59    
Precipitation  
Precipitation 0.52 in - - ()
Sea Level Pressure  
Sea Level Pressure 29.89 in    
Wind  
Wind Speed 2 mph (West)    
Max Wind Speed 7 mph    
Max Gust Speed -    
Visibility 6 miles    
Events Rain , Snow    
Averages and records for this station are not official NWS values.
T = Trace of Precipitation, MM = Missing Value Source: NWS Daily Summary

Daily Weather History Graph

Daily Weather History Graph

Search for Another Location

Airport or City:

Trip Planner

Search our weather history database for the weather conditions in past years. The results will help you decide how hot, cold, wet, or windy it might be!

Date:

Astronomy

Feb. 14, 2014 Rise Set
Actual Time 6:56 AM PST 5:19 PM PST
Civil Twilight 6:26 AM PST 5:50 PM PST
Nautical Twilight 5:51 AM PST 6:24 PM PST
Astronomical Twilight 5:17 AM PST 6:59 PM PST
Moon 5:30 PM PST (2/14) 6:24 AM PST (2/14)
Length of Visible Light 11h 23m
Length of Day
10h 22m
Full, 100% of the Moon is Illuminated
Feb 14
Full
Feb 14
Full
Feb 22
Last Quarter
Mar 1
New
Mar 8
First Quarter

Hourly Weather History & Observations

Time (PST) Temp. Windchill Dew Point Humidity Pressure Visibility Wind Dir Wind Speed Gust Speed Precip Events Conditions
12:56 AM 37.0 °F 34.5 °F 24.1 °F 59% 29.94 in 10.0 mi Variable 3.5 mph - N/A   Overcast
1:56 AM 36.0 °F - 28.0 °F 73% 29.92 in 7.0 mi Calm Calm - 0.00 in Snow Light Snow
2:07 AM 35.1 °F - 30.0 °F 82% 29.89 in 2.0 mi Calm Calm - 0.01 in Snow Light Snow
2:33 AM 34.0 °F - 32.0 °F 92% 29.86 in 3.0 mi Calm Calm - 0.01 in Snow Light Snow
2:56 AM 34.0 °F - 32.0 °F 92% 29.88 in 4.0 mi Calm Calm - 0.01 in Snow Light Snow
3:06 AM 34.0 °F - 32.0 °F 92% 29.83 in 5.0 mi Calm Calm - 0.00 in Snow Light Snow
3:56 AM 34.0 °F - 32.0 °F 92% 29.84 in 5.0 mi Calm Calm - 0.02 in Snow Light Snow
4:10 AM 35.1 °F 32.2 °F 33.1 °F 92% 29.82 in 6.0 mi Variable 3.5 mph - 0.01 in Rain Light Rain
4:24 AM 34.0 °F - 32.0 °F 92% 29.79 in 8.0 mi Calm Calm - 0.01 in Rain Light Rain
4:45 AM 35.1 °F 32.2 °F 32.0 °F 89% 29.80 in 10.0 mi Variable 3.5 mph - 0.02 in Snow Light Snow
4:56 AM 35.1 °F - 32.0 °F 89% 29.85 in 3.0 mi Calm Calm - 0.03 in Snow Light Snow
5:43 AM 35.1 °F - 33.1 °F 92% 29.79 in 5.0 mi Calm Calm - 0.08 in Rain Rain
5:51 AM 35.6 °F - 33.8 °F 93% 29.78 in 5.0 mi Calm Calm - 0.09 in Rain Light Rain
5:56 AM 35.1 °F - 34.0 °F 96% 29.84 in 5.0 mi Calm Calm - 0.10 in Rain Light Rain
6:13 AM 35.1 °F - 34.0 °F 96% 29.78 in 5.0 mi Calm Calm - 0.02 in Rain Light Rain
6:56 AM 35.1 °F 32.2 °F 34.0 °F 96% 29.84 in 10.0 mi Variable 3.5 mph - 0.05 in Rain Light Rain
7:56 AM 39.0 °F - 37.0 °F 93% 29.82 in 10.0 mi Calm Calm - 0.01 in   Overcast
8:56 AM 41.0 °F 39.0 °F 37.9 °F 89% 29.83 in 10.0 mi Variable 3.5 mph - N/A   Overcast
9:56 AM 41.0 °F - 39.0 °F 93% 29.85 in 10.0 mi Calm Calm - 0.00 in Rain Light Rain
10:04 AM 41.0 °F - 39.0 °F 93% 29.80 in 10.0 mi Calm Calm - 0.00 in Rain Light Rain
10:56 AM 42.1 °F - 39.0 °F 89% 29.86 in 10.0 mi Calm Calm - 0.01 in   Overcast
11:56 AM 41.0 °F 37.1 °F 39.0 °F 93% 29.89 in 4.0 mi Variable 5.8 mph - 0.02 in Rain Light Rain
12:05 PM 41.0 °F 38.0 °F 39.0 °F 93% 29.85 in 1.8 mi Variable 4.6 mph - 0.02 in Rain Rain
12:21 PM 41.0 °F 38.0 °F 39.0 °F 93% 29.86 in 1.5 mi Variable 4.6 mph - 0.10 in Rain Rain
12:28 PM 41.0 °F 39.0 °F 39.0 °F 93% 29.87 in 1.8 mi Variable 3.5 mph - 0.12 in Rain Rain
12:39 PM 41.0 °F - 39.9 °F 96% 29.85 in 3.0 mi Calm Calm - 0.15 in Rain Light Rain
12:48 PM 42.1 °F - 39.0 °F 89% 29.86 in 10.0 mi Calm Calm - 0.15 in   Overcast
12:56 PM 42.1 °F 39.2 °F 39.9 °F 92% 29.90 in 10.0 mi West 4.6 mph - 0.15 in   Overcast
1:11 PM 43.0 °F 40.3 °F 39.9 °F 89% 29.86 in 10.0 mi Variable 4.6 mph - 0.01 in   Overcast
1:56 PM 42.1 °F - 39.9 °F 92% 29.90 in 10.0 mi Calm Calm - 0.01 in   Overcast
2:56 PM 42.1 °F - 37.9 °F 85% 29.92 in 10.0 mi Calm Calm - 0.00 in Rain Light Rain
3:56 PM 39.0 °F 36.8 °F 37.0 °F 93% 29.95 in 2.5 mi Variable 3.5 mph - 0.01 in Rain Rain
4:17 PM 39.0 °F 35.7 °F 36.0 °F 89% 29.91 in 6.0 mi Variable 4.6 mph - 0.04 in Rain Light Rain
4:34 PM 39.0 °F 34.0 °F 36.0 °F 89% 29.91 in 1.8 mi West 6.9 mph - 0.05 in Rain Rain
4:42 PM 37.9 °F 35.5 °F 36.0 °F 93% 29.92 in 3.0 mi Variable 3.5 mph - 0.07 in Rain Light Rain
4:56 PM 39.0 °F 36.8 °F 36.0 °F 89% 29.95 in 10.0 mi Variable 3.5 mph - 0.07 in   Overcast
5:56 PM 37.9 °F 35.5 °F 36.0 °F 93% 29.96 in 10.0 mi Variable 3.5 mph - 0.00 in Rain Light Rain
6:07 PM 37.9 °F 34.4 °F 36.0 °F 93% 29.93 in 9.0 mi Variable 4.6 mph - 0.00 in Rain Light Rain
6:23 PM 37.9 °F 34.4 °F 36.0 °F 93% 29.93 in 8.0 mi Variable 4.6 mph - 0.02 in Rain Light Rain
6:56 PM 37.9 °F 34.4 °F 36.0 °F 93% 29.98 in 10.0 mi Variable 4.6 mph - 0.03 in Rain Light Rain
7:41 PM 37.0 °F - 36.0 °F 96% 29.94 in 10.0 mi Calm Calm - 0.00 in   Overcast
7:56 PM 36.0 °F - 34.0 °F 93% 29.99 in 10.0 mi Calm Calm - 0.00 in   Overcast
8:56 PM 34.0 °F - 33.1 °F 96% 29.99 in 7.0 mi Calm Calm - N/A   Mostly Cloudy
9:18 PM 33.1 °F - 32.0 °F 96% 29.92 in 2.0 mi Calm Calm - N/A   Mostly Cloudy
9:23 PM 33.1 °F - 30.9 °F 92% 29.92 in 0.8 mi Calm Calm - N/A   Overcast
9:41 PM 33.1 °F - 32.0 °F 96% 29.93 in 2.0 mi Calm Calm - N/A   Overcast
9:46 PM 33.1 °F - 33.1 °F 100% 29.93 in 8.0 mi Calm Calm - N/A   Overcast
9:56 PM 33.1 °F - 33.1 °F 100% 29.99 in 10.0 mi Calm Calm - N/A   Overcast
10:47 PM 32.0 °F - 30.9 °F 96% 29.92 in 3.0 mi Calm Calm - N/A   Overcast
10:56 PM 32.0 °F - 30.9 °F 96% 29.97 in 5.0 mi Calm Calm - N/A   Mostly Cloudy
11:35 PM 32.0 °F - 30.0 °F 92% 29.93 in 4.0 mi Calm Calm - N/A   Mostly Cloudy
11:43 PM 32.0 °F - 30.0 °F 92% 29.94 in 8.0 mi Calm Calm - N/A   Scattered Clouds
11:56 PM 32.0 °F - 30.0 °F 92% 29.99 in 8.0 mi Calm Calm - N/A   Scattered Clouds